TimeGMT,TemperatureF,Dew PointF,Humidity,Sea Level PressureIn,VisibilityMPH,Wind Direction,Wind SpeedMPH,Gust SpeedMPH,PrecipitationIn,Events,Conditions,WindDirDegrees,DateUTC
12:50 AM,50.0,42.8,76,29.65,4.3,West,16.1,-,N/A,,Partly Cloudy,260,2012-11-23 00:50:00
1:50 AM,50.0,42.8,76,29.68,5.0,West,15.0,-,N/A,,Partly Cloudy,270,2012-11-23 01:50:00
2:50 AM,48,43,77,29.70,3,West,8.1,,,,Partly Cloudy,270,2012-11-23 02:50:00
2:50 AM,48.2,42.8,82,29.68,3.1,West,8.1,-,N/A,,Scattered Clouds,270,2012-11-23 02:50:00
3:50 AM,42.8,37.4,81,29.71,6.2,NNW,3.5,-,N/A,,Partly Cloudy,340,2012-11-23 03:50:00
4:50 AM,37.4,33.8,87,29.71,6.2,East,3.5,-,N/A,,Unknown,90,2012-11-23 04:50:00
5:50 AM,36,34,90,29.75,9,SSE,1.2,,,,,150,2012-11-23 05:50:00
5:50 AM,35.6,33.8,93,29.74,6.2,SSE,1.2,-,N/A,,Unknown,150,2012-11-23 05:50:00
6:50 AM,39.2,37.4,93,29.74,6.2,ESE,5.8,-,N/A,,Partly Cloudy,110,2012-11-23 06:50:00
7:50 AM,37.4,35.6,93,29.77,6.2,SE,4.6,-,N/A,,Partly Cloudy,140,2012-11-23 07:50:00
8:50 AM,38,38,98,29.81,11,West,8.1,,,,Mostly Cloudy,270,2012-11-23 08:50:00
8:50 AM,39.2,37.4,93,29.80,6.2,West,8.1,-,N/A,,Mostly Cloudy,270,2012-11-23 08:50:00
9:50 AM,46.4,42.8,87,29.83,6.2,West,5.8,-,N/A,,Mostly Cloudy,280,2012-11-23 09:50:00
10:50 AM,46.4,41.0,81,29.83,6.2,NNE,3.5,-,N/A,,Scattered Clouds,30,2012-11-23 10:50:00
11:50 AM,50,43,69,29.85,6,SSW,5.8,,,,Scattered Clouds,200,2012-11-23 11:50:00
11:50 AM,50.0,42.8,76,29.83,6.2,SSW,5.8,-,N/A,,Partly Cloudy,200,2012-11-23 11:50:00
12:50 PM,51.8,44.6,76,29.83,6.2,SW,16.1,-,N/A,,Scattered Clouds,220,2012-11-23 12:50:00
1:50 PM,50.0,44.6,82,29.86,5.6,SW,24.2,-,N/A,,Partly Cloudy,220,2012-11-23 13:50:00
2:50 PM,51,43,66,29.87,6,WSW,17.3,,,,Scattered Clouds,240,2012-11-23 14:50:00
2:50 PM,51.8,42.8,71,29.86,6.2,WSW,17.3,-,N/A,,Partly Cloudy,240,2012-11-23 14:50:00
3:50 PM,50.0,41.0,71,29.86,6.2,West,16.1,-,N/A,,Partly Cloudy,270,2012-11-23 15:50:00
4:50 PM,50.0,42.8,76,29.89,6.2,WSW,13.8,-,N/A,,Partly Cloudy,240,2012-11-23 16:50:00
5:50 PM,42,38,83,29.91,9,West,2.3,,,,,280,2012-11-23 17:50:00
5:50 PM,42.8,39.2,87,29.89,6.2,West,2.3,-,N/A,,Unknown,280,2012-11-23 17:50:00
6:50 PM,37.4,35.6,93,29.92,6.2,NNW,1.2,-,N/A,,Unknown,330,2012-11-23 18:50:00
7:50 PM,37.4,37.4,100,29.92,6.2,ENE,3.5,-,N/A,,Scattered Clouds,60,2012-11-23 19:50:00
8:50 PM,39,38,93,29.95,12,East,5.8,,,,,100,2012-11-23 20:50:00
8:50 PM,39.2,37.4,93,29.95,6.2,East,5.8,-,N/A,,Unknown,100,2012-11-23 20:50:00
9:50 PM,39.2,37.4,93,29.95,6.2,East,5.8,-,N/A,,Unknown,90,2012-11-23 21:50:00
10:50 PM,33.8,33.8,100,29.98,5.0,ENE,5.8,-,N/A,,Unknown,70,2012-11-23 22:50:00
11:50 PM,39,38,92,29.98,10,East,5.8,,,,,80,2012-11-23 23:50:00
11:50 PM,39.2,37.4,93,29.98,6.2,East,5.8,-,N/A,,Unknown,80,2012-11-23 23:50:00